Flag for U.S.A. Weather past 2 weeks in Inglewood, California, U.S.A.

Now
68 °F

Clear.


Feels Like: 68 °F
Forecast: 69 / 83 °F
Wind: 5 mph from West

Location: Hawthorne Municipal Airport

Current Time: Aug 1, 2014 at 4:59:01 AM

Latest Report: Aug 1, 2014 at 3:53 AM


Visibility: 10 mi

Pressure: 29.90 "Hg

Humidity: 87%

Dew point: 64 °F

Location of InglewoodLocation

Historic Weather in Inglewood — Graph

°F

Inglewood temperature yesterday

Maximum temperature yesterday: 80 °F (at 11:53 AM)
Minimum temperature yesterday: 68 °F (at 3:53 AM)
Average temperature yesterday: 72 °F

Past Weeks' High & Low Weather Summary

 TemperatureHumidityPressure
High86 °F (Jul 24, 10:53 AM)96% (Jul 26, 7:53 AM)30.07 "Hg (Jul 26, 7:53 AM)
Low66 °F (Jul 18, 3:53 AM)29% (Jul 28, 12:53 PM)29.74 "Hg (Jul 24, 5:53 PM)
Average72 °F72%29.96 "Hg
* Reported Jul 17 3:53 AM — Aug 1 3:53 AM, Inglewood, Weather by CustomWeather, © 2014

Note: Actual official high and low records may vary slightly from our data, if they occured in-between our weather recording intervals... More about our weather records

Advertising

Inglewood weather history for previous 24 hours

 ConditionsComfort  
Time TempWeatherWind HumidityBarometerVisibility
3:53 AM
Aug 1
68 °FClear.5 mph87%29.90 "Hg10 mi
2:53 AM68 °FClear.No wind84%29.90 "Hg10 mi
1:53 AM68 °FClear.No wind84%29.91 "Hg10 mi
12:53 AM68 °FClear.No wind84%29.92 "Hg10 mi
11:53 PM
Jul 31
68 °FClear.No wind84%29.92 "Hg10 mi
10:53 PM68 °FClear.5 mph84%29.92 "Hg10 mi
9:53 PM69 °FPassing clouds.6 mph84%29.90 "Hg10 mi
8:53 PM70 °FSunny.8 mph79%29.88 "Hg10 mi
7:53 PM71 °FSunny.7 mph73%29.86 "Hg10 mi
6:53 PM73 °FSunny.7 mph69%29.85 "Hg10 mi
5:53 PM74 °FSunny.9 mph67%29.85 "Hg10 mi
4:53 PM76 °FSunny.9 mph60%29.86 "Hg10 mi
3:53 PM77 °FSunny.13 mph60%29.87 "Hg10 mi
2:53 PM77 °FSunny.13 mph62%29.89 "Hg10 mi
1:53 PM77 °FSunny.13 mph60%29.90 "Hg10 mi
12:53 PM78 °FSunny.10 mph62%29.91 "Hg10 mi
11:53 AM80 °FSunny.6 mph58%29.92 "Hg10 mi
10:53 AM77 °FSunny.8 mph64%29.93 "Hg10 mi
9:53 AM76 °FSunny.3 mph62%29.93 "Hg10 mi
8:53 AM73 °FSunny.3 mph74%29.94 "Hg10 mi
7:53 AM70 °FSunny.No wind81%29.93 "Hg10 mi
6:53 AM68 °FClear.3 mph87%29.92 "Hg10 mi
5:53 AM68 °FClear.No wind87%29.91 "Hg10 mi
4:53 AM68 °FClear.No wind87%29.91 "Hg10 mi
Weather by CustomWeather, © 2014

See weather overviewHow to use our weather pages